STARLINK-1127 (45091 NORAD) Tracking and Keplerian Element Data

This shows tracking and keplerian element data for the satellite.

Feedback or suggestion? Click here.




ElementValue
Catalog45091
NameSTARLINK-1127
Epoch Orbit2481
Epoch Day186.91667824
Epoch Year2020
RAAN196.1453
Inclination52.9971
Eccentricity0.0001404
Argument of Perigee81.2206
Mean Anonmoly54.8382
Mean Motion15.05556887
Decay Rate0.00036271
L11 45091U 20006AZ 20186.91667824 .00036271 00000-0 24973-2 0 9993
L22 45091 52.9971 196.1453 0001404 81.2206 54.8382 15.05556887 24816

Live tracking and technical data element details for STARLINK-1127 (NORAD 45091). STARLINK-1127 can be tracked NOW for your location showing map with azimuth and elevation plus other details from your city location.

Track the satellite on the map from your city or location and see movement details for azimuth, elevation, latitude, longitude, range, height, and movement on the map or in text.







IsCatalogInMostPopularTable: catalog: 45091, numindb: 29
Update: records affected: 1



GetName: 45091 STARLINK-1127

Hit Count: updated at: Mon, 06 Jul 2020 04:41:42 GMT